Time,TemperatureF,DewpointF,PressureIn,WindDirection,WindDirectionDegrees,WindSpeedMPH,WindSpeedGustMPH,Humidity,HourlyPrecipIn,Conditions,Clouds,dailyrainin,SoftwareType,DateUTC
2013-10-17 00:01:00,61.2,58.6,29.97,East,88,0.0,0.0,91,0.00,CLR,SCT,0.00,WeatherDisplay:10.37,2013-10-17 04:01:00,
2013-10-17 00:02:00,61.2,58.6,29.97,East,88,0.0,0.0,91,0.00,CLR,SCT,0.00,WeatherDisplay:10.37,2013-10-17 04:02:00,
2013-10-17 00:07:00,61.2,58.3,29.97,East,88,0.0,0.0,90,0.00,CLR,SCT,0.00,WeatherDisplay:10.37,2013-10-17 04:07:00,
2013-10-17 00:12:00,61.3,58.4,29.97,East,88,0.0,0.0,90,0.00,CLR,SCT,0.00,WeatherDisplay:10.37,2013-10-17 04:12:00,
2013-10-17 00:17:00,61.3,58.4,29.97,East,88,0.0,0.0,90,0.00,CLR,SCT,0.00,WeatherDisplay:10.37,2013-10-17 04:17:00,
2013-10-17 00:22:00,61.2,58.3,29.97,East,88,0.0,0.0,90,0.00,CLR,SCT,0.00,WeatherDisplay:10.37,2013-10-17 04:22:00,
2013-10-17 00:27:00,61.3,58.7,29.97,East,88,0.0,0.0,91,0.00,CLR,SCT,0.00,WeatherDisplay:10.37,2013-10-17 04:27:00,
2013-10-17 00:32:00,61.2,58.6,29.97,East,88,0.0,0.0,91,0.00,CLR,SCT,0.00,WeatherDisplay:10.37,2013-10-17 04:32:00,
2013-10-17 00:37:00,61.0,58.4,29.97,East,88,0.0,0.0,91,0.00,CLR,SCT,0.00,WeatherDisplay:10.37,2013-10-17 04:37:00,
2013-10-17 00:42:00,61.0,58.4,29.97,East,88,0.0,0.0,91,0.00,CLR,SCT,0.00,WeatherDisplay:10.37,2013-10-17 04:42:00,
2013-10-17 00:47:00,61.0,58.4,29.97,East,88,0.0,0.0,91,0.00,CLR,SCT,0.00,WeatherDisplay:10.37,2013-10-17 04:47:00,
2013-10-17 00:52:00,61.0,58.4,29.97,East,88,0.0,0.0,91,0.00,CLR,SCT,0.00,WeatherDisplay:10.37,2013-10-17 04:52:00,
2013-10-17 00:57:00,61.0,58.4,29.97,South,171,3.5,3.5,91,0.00,CLR,SCT,0.00,WeatherDisplay:10.37,2013-10-17 04:57:00,
2013-10-17 01:02:00,60.8,58.2,29.96,South,176,4.6,4.6,91,0.00,CLR,SCT,0.00,WeatherDisplay:10.37,2013-10-17 05:02:00,
2013-10-17 01:07:00,60.6,58.3,29.96,South,185,4.6,4.6,92,0.00,CLR,SCT,0.00,WeatherDisplay:10.37,2013-10-17 05:07:00,
2013-10-17 01:12:00,60.5,58.2,29.96,South,181,2.3,2.3,92,0.00,CLR,SCT,0.00,WeatherDisplay:10.37,2013-10-17 05:12:00,
2013-10-17 01:17:00,60.4,58.1,29.96,South,176,1.1,0.0,92,0.00,CLR,SCT,0.00,WeatherDisplay:10.37,2013-10-17 05:17:00,
2013-10-17 01:22:00,60.5,57.9,29.96,South,176,0.0,0.0,91,0.00,CLR,SCT,0.00,WeatherDisplay:10.37,2013-10-17 05:22:00,
2013-10-17 01:27:00,60.7,58.1,29.96,South,176,0.0,0.0,91,0.00,CLR,SCT,0.00,WeatherDisplay:10.37,2013-10-17 05:27:00,
2013-10-17 01:32:00,60.8,57.9,29.96,South,176,0.0,0.0,90,0.00,CLR,SCT,0.00,WeatherDisplay:10.37,2013-10-17 05:32:00,
2013-10-17 01:37:00,60.9,58.0,29.96,South,176,0.0,0.0,90,0.00,CLR,SCT,0.00,WeatherDisplay:10.37,2013-10-17 05:37:00,
2013-10-17 01:42:00,61.0,58.1,29.96,South,176,0.0,0.0,90,0.00,CLR,SCT,0.00,WeatherDisplay:10.37,2013-10-17 05:42:00,
2013-10-17 01:47:00,60.9,58.0,29.95,South,176,0.0,0.0,90,0.00,CLR,SCT,0.00,WeatherDisplay:10.37,2013-10-17 05:47:00,
2013-10-17 01:52:00,61.0,58.1,29.95,South,176,0.0,0.0,90,0.00,CLR,SCT,0.00,WeatherDisplay:10.37,2013-10-17 05:52:00,
2013-10-17 01:57:00,61.2,58.3,29.95,South,176,0.0,0.0,90,0.00,CLR,SCT,0.00,WeatherDisplay:10.37,2013-10-17 05:57:00,
2013-10-17 02:02:00,61.1,58.2,29.95,South,176,0.0,0.0,90,0.00,SCT,,0.00,WeatherDisplay:10.37,2013-10-17 06:02:00,
2013-10-17 02:07:00,61.0,58.1,29.95,South,176,0.0,0.0,90,0.00,SCT,,0.00,WeatherDisplay:10.37,2013-10-17 06:07:00,
2013-10-17 02:12:00,60.8,57.9,29.95,South,176,0.0,0.0,90,0.00,SCT,,0.00,WeatherDisplay:10.37,2013-10-17 06:12:00,
2013-10-17 02:18:00,60.9,58.3,29.95,South,176,0.0,0.0,91,0.00,SCT,,0.00,WeatherDisplay:10.37,2013-10-17 06:18:00,
2013-10-17 02:23:00,60.9,58.3,29.95,South,176,0.0,0.0,91,0.00,SCT,,0.00,WeatherDisplay:10.37,2013-10-17 06:23:00,
2013-10-17 02:28:00,60.7,58.4,29.95,South,176,0.0,0.0,92,0.00,SCT,,0.00,WeatherDisplay:10.37,2013-10-17 06:28:00,
2013-10-17 02:33:00,60.5,58.2,29.95,South,178,1.6,1.6,92,0.00,SCT,,0.00,WeatherDisplay:10.37,2013-10-17 06:33:00,
2013-10-17 02:38:00,60.1,58.1,29.94,SSW,199,3.5,3.5,93,0.00,SCT,,0.00,WeatherDisplay:10.37,2013-10-17 06:38:00,
2013-10-17 02:43:00,59.9,57.9,29.94,South,172,3.5,3.5,93,0.00,SCT,,0.00,WeatherDisplay:10.37,2013-10-17 06:43:00,
2013-10-17 02:48:00,59.6,57.9,29.95,South,188,3.5,3.5,94,0.00,SCT,,0.00,WeatherDisplay:10.37,2013-10-17 06:48:00,
2013-10-17 02:53:00,59.9,57.9,29.94,South,181,2.7,2.7,93,0.00,SCT,,0.00,WeatherDisplay:10.37,2013-10-17 06:53:00,
2013-10-17 02:58:00,59.9,57.6,29.93,South,182,2.3,2.3,92,0.00,SCT,,0.00,WeatherDisplay:10.37,2013-10-17 06:58:00,
2013-10-17 03:03:00,60.1,57.5,29.93,South,174,0.0,0.0,91,0.00,SCT,,0.00,WeatherDisplay:10.37,2013-10-17 07:03:00,
2013-10-17 03:08:00,60.4,57.8,29.94,South,174,0.0,0.0,91,0.00,SCT,,0.00,WeatherDisplay:10.37,2013-10-17 07:08:00,
2013-10-17 03:13:00,60.6,58.0,29.93,South,174,0.0,0.0,91,0.00,SCT,,0.00,WeatherDisplay:10.37,2013-10-17 07:13:00,
2013-10-17 03:18:00,60.6,58.0,29.93,South,174,0.0,0.0,91,0.00,SCT,,0.00,WeatherDisplay:10.37,2013-10-17 07:18:00,
2013-10-17 03:23:00,60.6,58.3,29.93,South,174,0.0,0.0,92,0.00,SCT,,0.00,WeatherDisplay:10.37,2013-10-17 07:23:00,
2013-10-17 03:28:00,60.5,58.2,29.93,South,174,0.0,0.0,92,0.00,SCT,,0.00,WeatherDisplay:10.37,2013-10-17 07:28:00,
2013-10-17 03:33:00,60.4,58.1,29.93,South,174,0.0,0.0,92,0.00,SCT,,0.00,WeatherDisplay:10.37,2013-10-17 07:33:00,
2013-10-17 03:38:00,60.6,58.0,29.93,South,174,0.0,0.0,91,0.00,SCT,,0.00,WeatherDisplay:10.37,2013-10-17 07:38:00,
2013-10-17 03:43:00,60.6,58.3,29.93,South,174,0.0,0.0,92,0.00,SCT,,0.00,WeatherDisplay:10.37,2013-10-17 07:43:00,
2013-10-17 03:48:00,60.3,58.0,29.93,South,174,0.0,0.0,92,0.00,SCT,,0.00,WeatherDisplay:10.37,2013-10-17 07:48:00,
2013-10-17 03:53:00,60.5,58.2,29.92,South,174,0.0,0.0,92,0.00,SCT,,0.00,WeatherDisplay:10.37,2013-10-17 07:53:00,
2013-10-17 03:58:00,60.5,58.5,29.92,South,174,0.0,0.0,93,0.00,SCT,,0.00,WeatherDisplay:10.37,2013-10-17 07:58:00,
2013-10-17 04:03:00,60.5,58.2,29.93,South,174,0.0,0.0,92,0.00,CLR,SCT,0.00,WeatherDisplay:10.37,2013-10-17 08:03:00,
2013-10-17 04:08:00,60.3,58.0,29.93,South,174,0.0,0.0,92,0.00,CLR,SCT,0.00,WeatherDisplay:10.37,2013-10-17 08:08:00,
2013-10-17 04:09:00,60.4,58.4,29.92,South,174,0.0,0.0,93,0.00,CLR,SCT,0.00,WeatherDisplay:10.37,2013-10-17 08:09:00,
2013-10-17 04:14:00,60.3,58.3,29.92,South,174,0.0,0.0,93,0.00,CLR,SCT,0.00,WeatherDisplay:10.37,2013-10-17 08:14:00,
2013-10-17 04:19:00,60.2,58.2,29.92,South,174,0.0,0.0,93,0.00,CLR,SCT,0.00,WeatherDisplay:10.37,2013-10-17 08:19:00,
2013-10-17 04:24:00,60.1,58.1,29.93,South,174,0.0,0.0,93,0.00,CLR,SCT,0.00,WeatherDisplay:10.37,2013-10-17 08:24:00,
2013-10-17 04:29:00,60.2,58.2,29.93,South,174,0.0,0.0,93,0.00,CLR,SCT,0.00,WeatherDisplay:10.37,2013-10-17 08:29:00,
2013-10-17 04:34:00,60.3,58.3,29.93,South,174,0.0,0.0,93,0.00,CLR,SCT,0.00,WeatherDisplay:10.37,2013-10-17 08:34:00,
2013-10-17 04:39:00,60.2,57.9,29.93,South,174,0.0,0.0,92,0.00,CLR,SCT,0.00,WeatherDisplay:10.37,2013-10-17 08:39:00,
2013-10-17 04:44:00,60.1,57.8,29.93,South,174,0.0,0.0,92,0.00,CLR,SCT,0.00,WeatherDisplay:10.37,2013-10-17 08:44:00,
2013-10-17 04:49:00,60.2,57.9,29.93,South,174,0.0,0.0,92,0.00,CLR,SCT,0.00,WeatherDisplay:10.37,2013-10-17 08:49:00,
2013-10-17 04:54:00,60.3,58.0,29.92,South,174,0.0,0.0,92,0.00,CLR,SCT,0.00,WeatherDisplay:10.37,2013-10-17 08:54:00,
2013-10-17 04:59:00,60.3,58.3,29.92,South,174,0.0,0.0,93,0.00,CLR,SCT,0.00,WeatherDisplay:10.37,2013-10-17 08:59:00,
2013-10-17 05:04:00,60.1,58.1,29.93,South,174,0.0,0.0,93,0.00,CLR,SCT,0.00,WeatherDisplay:10.37,2013-10-17 09:04:00,
2013-10-17 05:09:00,60.1,58.1,29.93,South,174,0.0,0.0,93,0.00,CLR,SCT,0.00,WeatherDisplay:10.37,2013-10-17 09:09:00,
2013-10-17 05:14:00,59.9,57.9,29.92,South,174,0.0,0.0,93,0.00,CLR,SCT,0.00,WeatherDisplay:10.37,2013-10-17 09:14:00,
2013-10-17 05:19:00,59.9,57.9,29.92,South,174,0.0,0.0,93,0.00,CLR,SCT,0.00,WeatherDisplay:10.37,2013-10-17 09:19:00,
2013-10-17 05:24:00,60.0,58.0,29.92,South,174,0.0,0.0,93,0.00,CLR,SCT,0.00,WeatherDisplay:10.37,2013-10-17 09:24:00,
2013-10-17 05:29:00,60.0,58.0,29.92,South,174,0.0,0.0,93,0.00,CLR,SCT,0.00,WeatherDisplay:10.37,2013-10-17 09:29:00,
2013-10-17 05:34:00,60.0,58.0,29.92,South,174,0.0,0.0,93,0.00,CLR,SCT,0.00,WeatherDisplay:10.37,2013-10-17 09:34:00,
2013-10-17 05:39:00,60.0,58.0,29.92,South,174,0.0,0.0,93,0.00,CLR,SCT,0.00,WeatherDisplay:10.37,2013-10-17 09:39:00,
2013-10-17 05:44:00,60.1,57.8,29.92,South,174,0.0,0.0,92,0.00,CLR,SCT,0.00,WeatherDisplay:10.37,2013-10-17 09:44:00,
2013-10-17 05:49:00,60.3,58.3,29.92,South,174,0.0,0.0,93,0.00,CLR,SCT,0.00,WeatherDisplay:10.37,2013-10-17 09:49:00,
2013-10-17 05:54:00,60.3,58.3,29.92,South,174,0.0,0.0,93,0.00,CLR,SCT,0.00,WeatherDisplay:10.37,2013-10-17 09:54:00,
2013-10-17 05:59:00,60.0,58.0,29.92,South,174,0.0,0.0,93,0.00,CLR,SCT,0.00,WeatherDisplay:10.37,2013-10-17 09:59:00,
2013-10-17 06:04:00,60.1,58.1,29.93,South,174,0.0,0.0,93,0.00,SCT,,0.00,WeatherDisplay:10.37,2013-10-17 10:04:00,
2013-10-17 06:09:00,60.3,58.3,29.93,South,174,0.0,0.0,93,0.00,SCT,,0.00,WeatherDisplay:10.37,2013-10-17 10:09:00,
2013-10-17 06:14:00,60.2,58.2,29.93,South,174,0.0,0.0,93,0.00,SCT,,0.00,WeatherDisplay:10.37,2013-10-17 10:14:00,
2013-10-17 06:19:00,60.1,58.1,29.93,South,174,0.0,0.0,93,0.00,SCT,,0.00,WeatherDisplay:10.37,2013-10-17 10:19:00,
2013-10-17 06:24:00,60.0,58.0,29.93,South,174,0.0,0.0,93,0.00,SCT,,0.00,WeatherDisplay:10.37,2013-10-17 10:24:00,
2013-10-17 06:29:00,59.9,57.9,29.93,South,174,0.0,0.0,93,0.00,SCT,,0.00,WeatherDisplay:10.37,2013-10-17 10:29:00,
2013-10-17 06:34:00,60.0,58.0,29.93,South,174,0.0,0.0,93,0.00,SCT,,0.00,WeatherDisplay:10.37,2013-10-17 10:34:00,
2013-10-17 06:39:00,60.0,58.3,29.93,South,174,0.0,0.0,94,0.00,SCT,,0.00,WeatherDisplay:10.37,2013-10-17 10:39:00,
2013-10-17 06:44:00,60.0,58.3,29.93,South,174,0.0,0.0,94,0.00,SCT,,0.00,WeatherDisplay:10.37,2013-10-17 10:44:00,
2013-10-17 06:49:00,59.8,57.8,29.93,ENE,76,2.4,2.4,93,0.00,SCT,,0.00,WeatherDisplay:10.37,2013-10-17 10:49:00,
2013-10-17 06:54:00,60.1,58.1,29.93,ENE,75,0.0,0.0,93,0.00,SCT,,0.00,WeatherDisplay:10.37,2013-10-17 10:54:00,
2013-10-17 06:59:00,60.0,58.0,29.93,ENE,75,0.0,0.0,93,0.00,SCT,,0.00,WeatherDisplay:10.37,2013-10-17 10:59:00,
2013-10-17 07:04:00,59.9,58.2,29.93,ENE,75,0.0,0.0,94,0.00,OVC,SCT,0.00,WeatherDisplay:10.37,2013-10-17 11:04:00,
2013-10-17 07:09:00,59.9,57.9,29.93,ENE,75,0.0,0.0,93,0.00,OVC,SCT,0.00,WeatherDisplay:10.37,2013-10-17 11:09:00,
2013-10-17 07:14:00,59.7,58.0,29.93,ENE,75,0.0,0.0,94,0.00,OVC,SCT,0.00,WeatherDisplay:10.37,2013-10-17 11:14:00,
2013-10-17 07:19:00,59.8,58.1,29.93,ENE,75,0.0,0.0,94,0.00,OVC,SCT,0.00,WeatherDisplay:10.37,2013-10-17 11:19:00,
2013-10-17 07:24:00,59.8,58.1,29.93,ENE,75,0.0,0.0,94,0.00,OVC,SCT,0.00,WeatherDisplay:10.37,2013-10-17 11:24:00,
2013-10-17 07:29:00,60.0,58.0,29.93,ENE,75,0.0,0.0,93,0.00,OVC,SCT,0.00,WeatherDisplay:10.37,2013-10-17 11:29:00,
2013-10-17 07:34:00,60.0,58.0,29.93,ENE,75,0.0,0.0,93,0.00,OVC,SCT,0.00,WeatherDisplay:10.37,2013-10-17 11:34:00,
2013-10-17 07:39:00,60.1,58.1,29.93,ENE,75,0.0,0.0,93,0.00,OVC,SCT,0.00,WeatherDisplay:10.37,2013-10-17 11:39:00,
2013-10-17 07:45:00,59.8,58.1,29.93,ENE,75,0.0,0.0,94,0.00,OVC,SCT,0.00,WeatherDisplay:10.37,2013-10-17 11:45:00,
2013-10-17 07:50:00,59.8,58.1,29.92,ESE,117,0.0,0.0,94,0.00,OVC,SCT,0.00,WeatherDisplay:10.37,2013-10-17 11:50:00,
2013-10-17 07:55:00,59.8,58.1,29.93,ENE,61,3.5,3.5,94,0.00,OVC,SCT,0.00,WeatherDisplay:10.37,2013-10-17 11:55:00,
2013-10-17 08:00:00,60.1,58.4,29.93,ENE,72,2.3,2.3,94,0.00,OVC,SCT,0.00,WeatherDisplay:10.37,2013-10-17 12:00:00,
2013-10-17 08:05:00,60.1,58.4,29.93,East,83,2.0,2.0,94,0.00,OVC,SCT,0.00,WeatherDisplay:10.37,2013-10-17 12:05:00,
2013-10-17 08:10:00,60.0,58.3,29.93,ENE,66,2.3,2.3,94,0.00,OVC,SCT,0.00,WeatherDisplay:10.37,2013-10-17 12:10:00,
2013-10-17 08:15:00,60.2,58.2,29.93,ENE,64,0.0,0.0,93,0.00,OVC,SCT,0.00,WeatherDisplay:10.37,2013-10-17 12:15:00,
2013-10-17 08:20:00,60.1,58.4,29.93,South,186,0.0,0.1,94,0.00,OVC,SCT,0.00,WeatherDisplay:10.37,2013-10-17 12:20:00,
2013-10-17 08:25:00,60.1,58.4,29.93,South,186,0.0,0.0,94,0.00,OVC,SCT,0.00,WeatherDisplay:10.37,2013-10-17 12:25:00,
2013-10-17 08:30:00,60.3,58.6,29.93,South,186,0.0,0.0,94,0.00,OVC,SCT,0.00,WeatherDisplay:10.37,2013-10-17 12:30:00,
2013-10-17 08:35:00,60.2,58.5,29.93,South,186,0.0,0.0,94,0.00,OVC,SCT,0.00,WeatherDisplay:10.37,2013-10-17 12:35:00,
2013-10-17 08:40:00,60.2,58.5,29.94,South,186,0.0,0.0,94,0.00,OVC,SCT,0.00,WeatherDisplay:10.37,2013-10-17 12:40:00,
2013-10-17 08:45:00,60.2,58.5,29.94,South,186,0.0,0.0,94,0.00,OVC,SCT,0.00,WeatherDisplay:10.37,2013-10-17 12:45:00,
2013-10-17 08:50:00,60.3,58.6,29.94,South,186,0.0,0.0,94,0.00,OVC,SCT,0.00,WeatherDisplay:10.37,2013-10-17 12:50:00,
2013-10-17 08:55:00,60.3,58.6,29.93,South,186,0.0,0.0,94,0.00,OVC,SCT,0.00,WeatherDisplay:10.37,2013-10-17 12:55:00,
2013-10-17 09:00:00,60.3,58.6,29.94,South,186,0.0,0.0,94,0.00,OVC,SCT,0.00,WeatherDisplay:10.37,2013-10-17 13:00:00,
2013-10-17 09:05:00,60.5,58.8,29.94,South,186,0.0,0.0,94,0.00,OVC,SCT,0.00,WeatherDisplay:10.37,2013-10-17 13:05:00,
2013-10-17 09:10:00,60.5,58.8,29.94,South,186,0.0,0.0,94,0.00,OVC,SCT,0.00,WeatherDisplay:10.37,2013-10-17 13:10:00,
2013-10-17 09:15:00,60.4,58.7,29.94,South,186,0.0,0.0,94,0.00,OVC,SCT,0.00,WeatherDisplay:10.37,2013-10-17 13:15:00,
2013-10-17 09:20:00,60.6,58.9,29.93,South,186,0.0,0.0,94,0.00,OVC,SCT,0.00,WeatherDisplay:10.37,2013-10-17 13:20:00,
2013-10-17 09:25:00,60.7,59.0,29.93,South,186,0.0,0.0,94,0.00,OVC,SCT,0.00,WeatherDisplay:10.37,2013-10-17 13:25:00,
2013-10-17 09:30:00,60.9,59.2,29.93,South,186,0.0,0.0,94,0.00,OVC,SCT,0.00,WeatherDisplay:10.37,2013-10-17 13:30:00,
2013-10-17 09:35:00,60.8,59.1,29.93,South,186,0.0,0.0,94,0.00,OVC,SCT,0.00,WeatherDisplay:10.37,2013-10-17 13:35:00,
2013-10-17 09:40:00,61.0,59.3,29.93,South,182,2.3,2.3,94,0.00,OVC,SCT,0.00,WeatherDisplay:10.37,2013-10-17 13:40:00,
2013-10-17 09:45:00,61.2,59.5,29.93,SSE,161,3.5,3.5,94,0.00,OVC,SCT,0.00,WeatherDisplay:10.37,2013-10-17 13:45:00,
2013-10-17 09:50:00,61.1,59.4,29.93,South,174,0.0,0.0,94,0.00,OVC,SCT,0.00,WeatherDisplay:10.37,2013-10-17 13:50:00,
2013-10-17 09:55:00,61.2,59.5,29.93,South,186,1.2,1.2,94,0.00,OVC,SCT,0.00,WeatherDisplay:10.37,2013-10-17 13:55:00,
2013-10-17 10:00:00,61.5,59.8,29.93,SE,124,0.0,0.0,94,0.00,OVC,SCT,0.00,WeatherDisplay:10.37,2013-10-17 14:00:00,
2013-10-17 10:05:00,61.6,59.9,29.93,SE,124,0.0,0.0,94,0.00,OVC,SCT,0.00,WeatherDisplay:10.37,2013-10-17 14:05:00,
2013-10-17 10:10:00,61.7,60.0,29.93,SE,124,0.0,0.0,94,0.00,OVC,SCT,0.00,WeatherDisplay:10.37,2013-10-17 14:10:00,
2013-10-17 10:15:00,61.8,60.1,29.93,SSE,161,1.1,1.2,94,0.00,OVC,SCT,0.00,WeatherDisplay:10.37,2013-10-17 14:15:00,
2013-10-17 10:20:00,62.0,60.3,29.93,South,176,1.1,1.3,94,0.00,OVC,SCT,0.00,WeatherDisplay:10.37,2013-10-17 14:20:00,
2013-10-17 10:25:00,62.0,60.3,29.93,SE,127,0.0,0.0,94,0.00,OVC,SCT,0.00,WeatherDisplay:10.37,2013-10-17 14:25:00,
2013-10-17 10:30:00,62.1,60.4,29.92,SE,127,0.0,0.0,94,0.00,OVC,SCT,0.00,WeatherDisplay:10.37,2013-10-17 14:30:00,
2013-10-17 10:35:00,62.3,60.6,29.92,SE,127,0.0,0.0,94,0.00,OVC,SCT,0.00,WeatherDisplay:10.37,2013-10-17 14:35:00,
2013-10-17 10:40:00,62.4,60.7,29.92,SSE,165,2.3,2.3,94,0.00,OVC,SCT,0.00,WeatherDisplay:10.37,2013-10-17 14:40:00,
2013-10-17 10:45:00,62.5,60.5,29.93,NE,35,2.3,2.3,93,0.00,OVC,SCT,0.00,WeatherDisplay:10.37,2013-10-17 14:45:00,
2013-10-17 10:50:00,62.6,60.3,29.92,NE,35,0.0,0.0,92,0.00,OVC,SCT,0.00,WeatherDisplay:10.37,2013-10-17 14:50:00,
2013-10-17 10:55:00,62.9,60.6,29.93,NE,56,1.1,0.0,92,0.00,OVC,SCT,0.00,WeatherDisplay:10.37,2013-10-17 14:55:00,
2013-10-17 11:00:00,63.1,60.8,29.93,NE,56,0.0,0.0,92,0.00,OVC,SCT,0.00,WeatherDisplay:10.37,2013-10-17 15:00:00,
2013-10-17 11:05:00,63.1,60.8,29.93,SSW,193,4.0,4.0,92,0.00,-RA,SCT,0.00,WeatherDisplay:10.37,2013-10-17 15:05:00,
2013-10-17 11:10:00,63.1,60.8,29.93,South,181,4.6,4.6,92,0.00,-RA,SCT,0.00,WeatherDisplay:10.37,2013-10-17 15:10:00,
2013-10-17 11:15:00,63.0,60.7,29.92,South,172,2.3,2.3,92,0.00,-RA,SCT,0.00,WeatherDisplay:10.37,2013-10-17 15:15:00,
2013-10-17 11:20:00,62.7,60.4,29.92,SE,144,0.0,0.0,92,0.00,-RA,SCT,0.00,WeatherDisplay:10.37,2013-10-17 15:20:00,
2013-10-17 11:25:00,63.0,60.7,29.92,East,93,1.2,1.2,92,0.00,-RA,SCT,0.00,WeatherDisplay:10.37,2013-10-17 15:25:00,
2013-10-17 11:30:00,63.1,61.1,29.92,NE,49,1.1,1.1,93,0.00,-RA,SCT,0.00,WeatherDisplay:10.37,2013-10-17 15:30:00,
2013-10-17 11:35:00,63.2,60.9,29.92,NE,49,0.0,0.0,92,0.00,-RA,SCT,0.00,WeatherDisplay:10.37,2013-10-17 15:35:00,
2013-10-17 11:40:00,63.3,61.0,29.92,ESE,123,2.3,2.3,92,0.00,-RA,SCT,0.00,WeatherDisplay:10.37,2013-10-17 15:40:00,
2013-10-17 11:45:00,63.3,61.3,29.92,South,185,2.3,2.3,93,0.00,-RA,SCT,0.00,WeatherDisplay:10.37,2013-10-17 15:45:00,
2013-10-17 11:50:00,63.2,60.9,29.92,South,184,1.1,1.1,92,0.00,-RA,SCT,0.00,WeatherDisplay:10.37,2013-10-17 15:50:00,
2013-10-17 11:55:00,63.2,60.9,29.92,East,93,0.0,0.0,92,0.00,-RA,SCT,0.00,WeatherDisplay:10.37,2013-10-17 15:55:00,
2013-10-17 12:00:00,63.2,60.9,29.92,East,93,0.0,0.0,92,0.00,-RA,SCT,0.00,WeatherDisplay:10.37,2013-10-17 16:00:00,
2013-10-17 12:05:00,63.4,61.1,29.92,East,93,0.0,0.0,92,0.00,-RA,SCT,0.00,WeatherDisplay:10.37,2013-10-17 16:05:00,
2013-10-17 12:10:00,63.3,61.0,29.92,SE,128,2.3,2.3,92,0.00,-RA,SCT,0.00,WeatherDisplay:10.37,2013-10-17 16:10:00,
2013-10-17 12:15:00,63.3,61.3,29.92,South,191,2.3,2.3,93,0.01,-RA,SCT,0.01,WeatherDisplay:10.37,2013-10-17 16:15:00,
2013-10-17 12:20:00,63.1,61.1,29.92,South,191,0.0,0.0,93,0.01,-RA,SCT,0.01,WeatherDisplay:10.37,2013-10-17 16:20:00,
2013-10-17 12:25:00,62.9,60.9,29.92,South,191,0.0,0.0,93,0.02,-RA,SCT,0.02,WeatherDisplay:10.37,2013-10-17 16:25:00,
2013-10-17 12:30:00,63.0,61.3,29.91,South,191,0.0,0.0,94,0.02,-RA,SCT,0.02,WeatherDisplay:10.37,2013-10-17 16:30:00,
2013-10-17 12:35:00,63.0,61.3,29.91,South,178,0.0,0.0,94,0.02,-RA,SCT,0.02,WeatherDisplay:10.37,2013-10-17 16:35:00,
2013-10-17 12:40:00,62.9,61.2,29.91,SSW,192,2.3,2.3,94,0.03,-RA,SCT,0.03,WeatherDisplay:10.37,2013-10-17 16:40:00,
2013-10-17 12:45:00,62.9,61.2,29.91,South,178,3.5,3.5,94,0.04,-RA,SCT,0.04,WeatherDisplay:10.37,2013-10-17 16:45:00,
2013-10-17 12:50:00,62.9,61.2,29.90,South,186,4.6,4.6,94,0.04,-RA,SCT,0.04,WeatherDisplay:10.37,2013-10-17 16:50:00,
2013-10-17 12:55:00,62.9,61.5,29.90,South,178,5.8,5.8,95,0.04,-RA,SCT,0.04,WeatherDisplay:10.37,2013-10-17 16:55:00,
2013-10-17 13:00:00,62.8,61.4,29.90,South,171,5.8,5.8,95,0.04,-RA,SCT,0.04,WeatherDisplay:10.37,2013-10-17 17:00:00,
2013-10-17 13:05:00,62.9,61.5,29.90,South,181,5.8,5.8,95,0.04,OVC,SCT,0.04,WeatherDisplay:10.37,2013-10-17 17:05:00,
2013-10-17 13:10:00,62.9,61.5,29.89,South,179,3.5,3.5,95,0.04,OVC,SCT,0.04,WeatherDisplay:10.37,2013-10-17 17:10:00,
2013-10-17 13:15:00,63.0,61.6,29.89,South,182,3.5,3.5,95,0.04,RA,SCT,0.05,WeatherDisplay:10.37,2013-10-17 17:15:00,
2013-10-17 13:20:00,63.0,61.6,29.89,South,182,3.5,3.5,95,0.04,RA,SCT,0.05,WeatherDisplay:10.37,2013-10-17 17:20:00,
2013-10-17 13:25:00,63.1,61.7,29.89,SSW,196,5.8,5.8,95,0.03,OVC,SCT,0.05,WeatherDisplay:10.37,2013-10-17 17:25:00,
2013-10-17 13:30:00,63.2,61.8,29.88,South,179,6.9,6.9,95,0.03,OVC,SCT,0.05,WeatherDisplay:10.37,2013-10-17 17:30:00,
2013-10-17 13:35:00,63.2,61.5,29.88,SW,220,5.8,5.8,94,0.03,OVC,SCT,0.05,WeatherDisplay:10.37,2013-10-17 17:35:00,
2013-10-17 13:40:00,63.4,61.7,29.87,South,179,4.6,4.6,94,0.02,OVC,SCT,0.05,WeatherDisplay:10.37,2013-10-17 17:40:00,
2013-10-17 13:45:00,63.6,61.9,29.87,South,189,5.8,5.8,94,0.01,OVC,SCT,0.05,WeatherDisplay:10.37,2013-10-17 17:45:00,
2013-10-17 13:50:00,63.8,62.1,29.86,South,186,4.6,4.6,94,0.01,OVC,SCT,0.05,WeatherDisplay:10.37,2013-10-17 17:50:00,
2013-10-17 13:55:00,63.7,62.0,29.87,SW,215,4.2,4.2,94,0.01,OVC,SCT,0.05,WeatherDisplay:10.37,2013-10-17 17:55:00,
2013-10-17 14:00:00,63.9,62.2,29.86,SSW,199,5.8,5.8,94,0.01,OVC,SCT,0.05,WeatherDisplay:10.37,2013-10-17 18:00:00,
2013-10-17 14:05:00,63.8,62.1,29.86,SSE,162,4.6,4.6,94,0.01,OVC,SCT,0.05,WeatherDisplay:10.37,2013-10-17 18:05:00,
2013-10-17 14:10:00,63.8,62.1,29.86,South,184,5.8,5.8,94,0.01,OVC,SCT,0.05,WeatherDisplay:10.37,2013-10-17 18:10:00,
2013-10-17 14:15:00,63.9,62.2,29.85,SE,145,3.5,3.5,94,0.00,OVC,SCT,0.05,WeatherDisplay:10.37,2013-10-17 18:15:00,
2013-10-17 14:20:00,64.0,62.3,29.86,SSE,165,8.1,8.1,94,0.00,OVC,SCT,0.05,WeatherDisplay:10.37,2013-10-17 18:20:00,
2013-10-17 14:25:00,63.9,62.2,29.85,South,175,5.8,5.9,94,0.00,OVC,SCT,0.05,WeatherDisplay:10.37,2013-10-17 18:25:00,
2013-10-17 14:30:00,63.9,62.2,29.85,SSE,168,5.8,5.8,94,0.00,OVC,SCT,0.05,WeatherDisplay:10.37,2013-10-17 18:30:00,
2013-10-17 14:35:00,64.1,62.4,29.84,SSE,154,8.1,8.1,94,0.00,OVC,SCT,0.05,WeatherDisplay:10.37,2013-10-17 18:35:00,
2013-10-17 14:40:00,64.2,62.2,29.85,South,179,7.4,7.4,93,0.00,OVC,SCT,0.05,WeatherDisplay:10.37,2013-10-17 18:40:00,
2013-10-17 14:45:00,64.0,62.0,29.85,South,186,9.2,9.2,93,0.00,OVC,SCT,0.05,WeatherDisplay:10.37,2013-10-17 18:45:00,
2013-10-17 14:50:00,63.7,61.7,29.84,South,174,6.9,6.9,93,0.00,OVC,SCT,0.05,WeatherDisplay:10.37,2013-10-17 18:50:00,
2013-10-17 14:55:00,63.8,62.1,29.84,South,181,5.9,5.9,94,0.00,OVC,SCT,0.05,WeatherDisplay:10.37,2013-10-17 18:55:00,
2013-10-17 15:00:00,63.6,61.9,29.85,SSE,165,10.4,10.4,94,0.00,OVC,SCT,0.05,WeatherDisplay:10.37,2013-10-17 19:00:00,
2013-10-17 15:05:00,63.5,61.8,29.85,SSE,168,6.9,6.9,94,0.00,OVC,SCT,0.05,WeatherDisplay:10.37,2013-10-17 19:05:00,
2013-10-17 15:10:00,63.4,61.7,29.84,SSE,164,6.9,6.9,94,0.00,OVC,SCT,0.05,WeatherDisplay:10.37,2013-10-17 19:10:00,
2013-10-17 15:15:00,63.2,61.5,29.84,South,186,8.1,8.1,94,0.00,OVC,SCT,0.05,WeatherDisplay:10.37,2013-10-17 19:15:00,
2013-10-17 15:20:00,63.0,61.3,29.84,South,178,12.7,12.7,94,0.00,OVC,SCT,0.05,WeatherDisplay:10.37,2013-10-17 19:20:00,
2013-10-17 15:25:00,62.9,61.2,29.84,South,175,10.4,10.4,94,0.00,OVC,SCT,0.05,WeatherDisplay:10.37,2013-10-17 19:25:00,
2013-10-17 15:30:00,62.9,61.2,29.84,SSE,164,6.9,6.9,94,0.00,OVC,SCT,0.05,WeatherDisplay:10.37,2013-10-17 19:30:00,
2013-10-17 15:31:00,62.8,61.1,29.84,East,88,5.8,5.8,94,0.00,OVC,SCT,0.05,WeatherDisplay:10.37,2013-10-17 19:31:00,
2013-10-17 15:36:00,63.0,61.3,29.84,South,184,10.4,10.4,94,0.00,OVC,SCT,0.05,WeatherDisplay:10.37,2013-10-17 19:36:00,
2013-10-17 15:41:00,63.0,61.3,29.83,SSE,154,9.2,9.2,94,0.00,OVC,SCT,0.05,WeatherDisplay:10.37,2013-10-17 19:41:00,
2013-10-17 15:46:00,63.0,61.3,29.82,South,179,8.1,8.1,94,0.00,OVC,SCT,0.05,WeatherDisplay:10.37,2013-10-17 19:46:00,
2013-10-17 15:51:00,63.1,61.4,29.83,South,182,5.8,5.8,94,0.00,OVC,SCT,0.05,WeatherDisplay:10.37,2013-10-17 19:51:00,
2013-10-17 15:56:00,63.1,61.4,29.83,South,188,3.5,3.5,94,0.00,OVC,SCT,0.05,WeatherDisplay:10.37,2013-10-17 19:56:00,
2013-10-17 16:01:00,63.3,61.6,29.83,SE,144,4.6,4.6,94,0.00,OVC,SCT,0.05,WeatherDisplay:10.37,2013-10-17 20:01:00,
2013-10-17 16:06:00,63.2,61.5,29.83,South,182,5.2,5.2,94,0.00,OVC,SCT,0.05,WeatherDisplay:10.37,2013-10-17 20:06:00,
2013-10-17 16:11:00,63.4,62.0,29.83,South,191,6.9,6.9,95,0.00,OVC,SCT,0.05,WeatherDisplay:10.37,2013-10-17 20:11:00,
2013-10-17 16:16:00,63.1,61.7,29.83,South,178,10.4,10.4,95,0.00,OVC,SCT,0.05,WeatherDisplay:10.37,2013-10-17 20:16:00,
2013-10-17 16:21:00,63.1,61.7,29.83,South,171,12.7,12.7,95,0.00,OVC,SCT,0.05,WeatherDisplay:10.37,2013-10-17 20:21:00,
2013-10-17 16:26:00,63.2,62.1,29.82,SSE,168,10.4,10.4,96,0.00,OVC,SCT,0.05,WeatherDisplay:10.37,2013-10-17 20:26:00,
2013-10-17 16:31:00,63.2,61.8,29.82,SSE,164,12.0,12.0,95,0.00,OVC,SCT,0.05,WeatherDisplay:10.37,2013-10-17 20:31:00,
2013-10-17 16:36:00,63.6,62.2,29.82,SSE,162,12.7,12.7,95,0.00,OVC,SCT,0.05,WeatherDisplay:10.37,2013-10-17 20:36:00,
2013-10-17 16:41:00,63.6,61.9,29.83,South,179,11.5,11.5,94,0.00,OVC,SCT,0.05,WeatherDisplay:10.37,2013-10-17 20:41:00,
2013-10-17 16:46:00,63.6,62.2,29.82,SSW,206,9.2,9.2,95,0.00,OVC,SCT,0.05,WeatherDisplay:10.37,2013-10-17 20:46:00,
2013-10-17 16:51:00,63.8,62.4,29.83,South,172,10.4,10.4,95,0.00,OVC,SCT,0.05,WeatherDisplay:10.37,2013-10-17 20:51:00,
2013-10-17 16:56:00,63.7,62.0,29.83,SSE,161,11.5,11.5,94,0.00,OVC,SCT,0.05,WeatherDisplay:10.37,2013-10-17 20:56:00,
2013-10-17 17:01:00,63.7,62.3,29.82,SSE,167,13.8,13.8,95,0.00,OVC,SCT,0.05,WeatherDisplay:10.37,2013-10-17 21:01:00,
2013-10-17 17:06:00,63.7,62.3,29.82,SSE,158,10.6,10.6,95,0.00,OVC,SCT,0.05,WeatherDisplay:10.37,2013-10-17 21:06:00,
2013-10-17 17:11:00,63.7,62.3,29.81,South,171,10.4,10.4,95,0.00,OVC,SCT,0.05,WeatherDisplay:10.37,2013-10-17 21:11:00,
2013-10-17 17:16:00,63.8,62.1,29.81,SSE,162,10.4,10.4,94,0.00,OVC,SCT,0.05,WeatherDisplay:10.37,2013-10-17 21:16:00,
2013-10-17 17:21:00,63.8,62.1,29.81,SSE,151,11.5,11.5,94,0.00,OVC,SCT,0.05,WeatherDisplay:10.37,2013-10-17 21:21:00,
2013-10-17 17:26:00,63.8,62.1,29.81,South,176,13.8,13.8,94,0.00,OVC,SCT,0.05,WeatherDisplay:10.37,2013-10-17 21:26:00,
2013-10-17 17:31:00,63.7,62.0,29.81,SSE,168,11.9,11.9,94,0.00,OVC,SCT,0.05,WeatherDisplay:10.37,2013-10-17 21:31:00,
2013-10-17 17:36:00,63.7,62.0,29.81,SSE,150,10.4,10.4,94,0.00,OVC,SCT,0.05,WeatherDisplay:10.37,2013-10-17 21:36:00,
2013-10-17 17:41:00,63.4,62.0,29.81,SE,138,15.0,15.0,95,0.00,OVC,SCT,0.05,WeatherDisplay:10.37,2013-10-17 21:41:00,
2013-10-17 17:46:00,63.2,61.8,29.81,SSE,165,13.8,13.8,95,0.00,OVC,SCT,0.05,WeatherDisplay:10.37,2013-10-17 21:46:00,
2013-10-17 17:51:00,63.1,61.7,29.81,SW,215,13.8,13.8,95,0.00,OVC,SCT,0.05,WeatherDisplay:10.37,2013-10-17 21:51:00,
2013-10-17 17:56:00,62.9,61.5,29.81,SSW,203,11.5,11.5,95,0.00,OVC,SCT,0.05,WeatherDisplay:10.37,2013-10-17 21:56:00,
2013-10-17 18:01:00,62.9,61.8,29.81,South,169,13.8,13.8,96,0.00,OVC,SCT,0.05,WeatherDisplay:10.37,2013-10-17 22:01:00,
2013-10-17 18:06:00,63.0,61.9,29.81,SSE,167,12.7,12.7,96,0.00,OVC,SCT,0.05,WeatherDisplay:10.37,2013-10-17 22:06:00,
2013-10-17 18:11:00,62.9,61.8,29.81,SSE,167,15.7,15.7,96,0.00,OVC,SCT,0.05,WeatherDisplay:10.37,2013-10-17 22:11:00,
2013-10-17 18:16:00,62.9,61.8,29.81,SSW,192,8.1,8.1,96,0.00,OVC,SCT,0.05,WeatherDisplay:10.37,2013-10-17 22:16:00,
2013-10-17 18:21:00,62.8,61.7,29.82,SSE,151,10.5,10.5,96,0.00,OVC,SCT,0.05,WeatherDisplay:10.37,2013-10-17 22:21:00,
2013-10-17 18:26:00,62.9,61.8,29.82,South,171,9.2,9.2,96,0.00,OVC,SCT,0.05,WeatherDisplay:10.37,2013-10-17 22:26:00,
2013-10-17 18:31:00,62.9,61.8,29.82,South,176,8.1,8.1,96,0.00,OVC,SCT,0.05,WeatherDisplay:10.37,2013-10-17 22:31:00,
2013-10-17 18:36:00,62.9,61.5,29.82,SSW,212,8.1,8.1,95,0.00,OVC,SCT,0.05,WeatherDisplay:10.37,2013-10-17 22:36:00,
2013-10-17 18:41:00,62.9,61.5,29.82,SSW,209,9.2,9.2,95,0.00,OVC,SCT,0.05,WeatherDisplay:10.37,2013-10-17 22:41:00,
2013-10-17 18:46:00,62.8,61.4,29.81,SSW,200,9.2,9.2,95,0.00,OVC,SCT,0.05,WeatherDisplay:10.37,2013-10-17 22:46:00,
2013-10-17 18:51:00,62.9,61.5,29.82,SSW,200,8.1,8.1,95,0.00,OVC,SCT,0.05,WeatherDisplay:10.37,2013-10-17 22:51:00,
2013-10-17 18:56:00,62.7,61.3,29.82,SSW,200,6.9,6.9,95,0.00,OVC,SCT,0.05,WeatherDisplay:10.37,2013-10-17 22:56:00,
2013-10-17 19:01:00,62.8,61.4,29.82,South,179,8.1,8.1,95,0.00,OVC,SCT,0.05,WeatherDisplay:10.37,2013-10-17 23:01:00,
2013-10-17 19:06:00,62.8,61.4,29.83,SSW,210,6.9,6.9,95,0.00,OVC,SCT,0.05,WeatherDisplay:10.37,2013-10-17 23:06:00,
2013-10-17 19:11:00,63.0,61.3,29.83,SW,233,6.9,6.9,94,0.00,OVC,SCT,0.05,WeatherDisplay:10.37,2013-10-17 23:11:00,
2013-10-17 19:16:00,63.1,61.4,29.83,SE,127,8.1,8.1,94,0.00,OVC,SCT,0.05,WeatherDisplay:10.37,2013-10-17 23:16:00,
2013-10-17 19:21:00,63.1,61.1,29.83,SW,227,6.9,6.9,93,0.00,OVC,SCT,0.05,WeatherDisplay:10.37,2013-10-17 23:21:00,
2013-10-17 19:26:00,63.1,61.1,29.83,WSW,244,6.6,6.6,93,0.00,OVC,SCT,0.05,WeatherDisplay:10.37,2013-10-17 23:26:00,
2013-10-17 19:31:00,63.2,61.2,29.83,SE,140,6.9,6.9,93,0.00,OVC,SCT,0.05,WeatherDisplay:10.37,2013-10-17 23:31:00,
2013-10-17 19:36:00,63.4,61.1,29.83,SW,217,6.9,6.9,92,0.00,OVC,SCT,0.05,WeatherDisplay:10.37,2013-10-17 23:36:00,
2013-10-17 19:41:00,63.5,61.2,29.84,West,271,6.9,6.9,92,0.00,OVC,SCT,0.05,WeatherDisplay:10.37,2013-10-17 23:41:00,
2013-10-17 19:46:00,63.7,61.1,29.84,WNW,287,4.6,0.0,91,0.00,OVC,SCT,0.05,WeatherDisplay:10.37,2013-10-17 23:46:00,
2013-10-17 19:51:00,63.7,61.1,29.85,ENE,75,5.8,5.8,91,0.00,OVC,SCT,0.05,WeatherDisplay:10.37,2013-10-17 23:51:00,
2013-10-17 19:56:00,63.6,61.3,29.86,ENE,71,0.0,0.0,92,0.00,OVC,SCT,0.05,WeatherDisplay:10.37,2013-10-17 23:56:00,
2013-10-17 20:01:00,63.6,61.6,29.86,NE,51,1.1,0.0,93,0.00,BKN,SCT,0.05,WeatherDisplay:10.37,2013-10-18 00:01:00,
2013-10-17 20:06:00,63.5,61.8,29.86,ENE,73,2.3,2.4,94,0.00,BKN,SCT,0.05,WeatherDisplay:10.37,2013-10-18 00:06:00,
2013-10-17 20:11:00,63.4,61.7,29.86,NNE,32,0.0,0.0,94,0.00,BKN,SCT,0.05,WeatherDisplay:10.37,2013-10-18 00:11:00,
2013-10-17 20:16:00,63.3,61.6,29.86,NNE,32,0.0,0.0,94,0.00,BKN,SCT,0.05,WeatherDisplay:10.37,2013-10-18 00:16:00,
2013-10-17 20:21:00,63.1,61.4,29.87,NNE,32,0.0,0.0,94,0.00,BKN,SCT,0.05,WeatherDisplay:10.37,2013-10-18 00:21:00,
2013-10-17 20:26:00,63.0,61.6,29.87,NW,313,1.1,0.0,95,0.00,BKN,SCT,0.05,WeatherDisplay:10.37,2013-10-18 00:26:00,
2013-10-17 20:31:00,62.8,60.8,29.87,West,261,2.3,2.3,93,0.00,BKN,SCT,0.05,WeatherDisplay:10.37,2013-10-18 00:31:00,
2013-10-17 20:36:00,62.6,60.0,29.87,WSW,248,1.1,1.1,91,0.00,BKN,SCT,0.05,WeatherDisplay:10.37,2013-10-18 00:36:00,
2013-10-17 20:41:00,62.4,59.5,29.87,NNW,328,1.1,0.0,90,0.00,BKN,SCT,0.05,WeatherDisplay:10.37,2013-10-18 00:41:00,
2013-10-17 20:46:00,62.2,59.0,29.87,SSW,199,4.6,4.6,89,0.00,BKN,SCT,0.05,WeatherDisplay:10.37,2013-10-18 00:46:00,
2013-10-17 20:51:00,62.0,58.4,29.87,SSW,203,1.4,1.5,88,0.00,BKN,SCT,0.05,WeatherDisplay:10.37,2013-10-18 00:51:00,
2013-10-17 20:56:00,61.9,58.0,29.87,ENE,73,2.3,2.3,87,0.00,BKN,SCT,0.05,WeatherDisplay:10.37,2013-10-18 00:56:00,
2013-10-17 21:01:00,61.6,57.4,29.88,SW,224,8.1,8.1,86,0.00,FEW,SCT,0.05,WeatherDisplay:10.37,2013-10-18 01:01:00,
2013-10-17 21:06:00,61.5,57.0,29.88,North,4,5.8,5.8,85,0.00,FEW,SCT,0.05,WeatherDisplay:10.37,2013-10-18 01:06:00,
2013-10-17 21:12:00,61.4,56.9,29.88,NNE,21,2.3,2.3,85,0.00,FEW,SCT,0.05,WeatherDisplay:10.37,2013-10-18 01:12:00,
2013-10-17 21:17:00,61.1,56.6,29.88,ENE,76,1.1,1.1,85,0.00,FEW,SCT,0.05,WeatherDisplay:10.37,2013-10-18 01:17:00,
2013-10-17 21:22:00,61.1,56.6,29.88,ENE,66,2.3,2.3,85,0.00,FEW,SCT,0.05,WeatherDisplay:10.37,2013-10-18 01:22:00,
2013-10-17 21:27:00,60.8,56.6,29.89,SE,134,4.6,4.6,86,0.00,FEW,SCT,0.05,WeatherDisplay:10.37,2013-10-18 01:27:00,
2013-10-17 21:32:00,60.6,56.4,29.89,ENE,66,1.1,1.2,86,0.00,FEW,SCT,0.05,WeatherDisplay:10.37,2013-10-18 01:32:00,
2013-10-17 21:37:00,60.6,56.4,29.89,West,280,1.1,1.1,86,0.00,FEW,SCT,0.05,WeatherDisplay:10.37,2013-10-18 01:37:00,
2013-10-17 21:42:00,60.5,56.3,29.89,NW,306,5.8,5.8,86,0.00,FEW,SCT,0.05,WeatherDisplay:10.37,2013-10-18 01:42:00,
2013-10-17 21:47:00,60.4,56.2,29.90,SSW,202,0.0,0.0,86,0.00,FEW,SCT,0.05,WeatherDisplay:10.37,2013-10-18 01:47:00,
2013-10-17 21:52:00,60.3,56.1,29.90,ESE,107,4.6,4.6,86,0.00,FEW,SCT,0.05,WeatherDisplay:10.37,2013-10-18 01:52:00,
2013-10-17 21:57:00,60.2,56.4,29.91,NNE,14,4.6,4.6,87,0.00,FEW,SCT,0.05,WeatherDisplay:10.37,2013-10-18 01:57:00,
2013-10-17 22:02:00,60.1,56.3,29.91,East,85,5.8,5.8,87,0.00,SCT,,0.05,WeatherDisplay:10.37,2013-10-18 02:02:00,
2013-10-17 22:07:00,60.0,56.2,29.91,East,88,1.4,1.4,87,0.00,SCT,,0.05,WeatherDisplay:10.37,2013-10-18 02:07:00,
2013-10-17 22:12:00,59.9,56.1,29.91,ESE,102,1.1,1.1,87,0.00,SCT,,0.05,WeatherDisplay:10.37,2013-10-18 02:12:00,
2013-10-17 22:17:00,59.6,55.8,29.91,NNW,339,3.5,3.5,87,0.00,SCT,,0.05,WeatherDisplay:10.37,2013-10-18 02:17:00,
2013-10-17 22:22:00,59.6,56.1,29.91,SE,136,2.8,2.8,88,0.00,SCT,,0.05,WeatherDisplay:10.37,2013-10-18 02:22:00,
2013-10-17 22:27:00,59.4,55.6,29.91,SSE,147,3.5,3.5,87,0.00,SCT,,0.05,WeatherDisplay:10.37,2013-10-18 02:27:00,
2013-10-17 22:32:00,59.2,55.4,29.91,WNW,298,2.3,3.2,87,0.00,SCT,,0.05,WeatherDisplay:10.37,2013-10-18 02:32:00,
2013-10-17 22:37:00,59.1,55.6,29.92,WNW,298,0.0,0.0,88,0.00,SCT,,0.05,WeatherDisplay:10.37,2013-10-18 02:37:00,
2013-10-17 22:42:00,59.2,55.7,29.92,East,96,1.1,1.1,88,0.00,SCT,,0.05,WeatherDisplay:10.37,2013-10-18 02:42:00,
2013-10-17 22:47:00,58.9,55.4,29.92,WNW,292,0.6,0.9,88,0.00,SCT,,0.05,WeatherDisplay:10.37,2013-10-18 02:47:00,
2013-10-17 22:52:00,58.8,55.3,29.92,WSW,237,0.0,0.0,88,0.00,SCT,,0.05,WeatherDisplay:10.37,2013-10-18 02:52:00,
2013-10-17 22:57:00,58.7,55.2,29.92,NE,47,1.1,1.1,88,0.00,SCT,,0.05,WeatherDisplay:10.37,2013-10-18 02:57:00,
2013-10-17 23:02:00,58.7,55.2,29.92,ENE,78,0.0,0.0,88,0.00,OVC,SCT,0.05,WeatherDisplay:10.37,2013-10-18 03:02:00,
2013-10-17 23:07:00,58.6,55.1,29.93,ESE,104,0.0,0.0,88,0.00,OVC,SCT,0.05,WeatherDisplay:10.37,2013-10-18 03:07:00,
2013-10-17 23:12:00,58.4,54.9,29.93,East,96,3.5,3.5,88,0.00,OVC,SCT,0.05,WeatherDisplay:10.37,2013-10-18 03:12:00,
2013-10-17 23:17:00,58.4,55.2,29.93,East,85,6.9,6.9,89,0.00,OVC,SCT,0.05,WeatherDisplay:10.37,2013-10-18 03:17:00,
2013-10-17 23:22:00,58.6,55.1,29.93,East,79,0.0,0.0,88,0.00,OVC,SCT,0.05,WeatherDisplay:10.37,2013-10-18 03:22:00,
2013-10-17 23:27:00,58.6,55.4,29.93,NNE,24,0.0,0.0,89,0.00,OVC,SCT,0.05,WeatherDisplay:10.37,2013-10-18 03:27:00,
2013-10-17 23:32:00,58.6,55.4,29.93,East,100,0.0,0.0,89,0.00,OVC,SCT,0.05,WeatherDisplay:10.37,2013-10-18 03:32:00,
2013-10-17 23:37:00,58.4,55.2,29.93,East,92,2.9,2.9,89,0.00,OVC,SCT,0.05,WeatherDisplay:10.37,2013-10-18 03:37:00,
2013-10-17 23:42:00,58.5,55.0,29.93,East,97,8.1,8.1,88,0.00,OVC,SCT,0.05,WeatherDisplay:10.37,2013-10-18 03:42:00,
2013-10-17 23:47:00,58.3,54.5,29.93,SE,124,3.5,3.5,87,0.00,OVC,SCT,0.05,WeatherDisplay:10.37,2013-10-18 03:47:00,
2013-10-17 23:52:00,58.1,54.3,29.93,NE,45,2.3,2.3,87,0.00,OVC,SCT,0.05,WeatherDisplay:10.37,2013-10-18 03:52:00,
2013-10-17 23:57:00,58.0,53.9,29.93,West,264,3.5,3.5,86,0.00,OVC,SCT,0.05,WeatherDisplay:10.37,2013-10-18 03:57:00,